Regional Weather Roundup
Issued by NWS

Home | Current Version | Previous Version | Text Only | Print | Product List | Glossary Off
Versions: 1 2 3 4 5 6 7 8 9 10 11 12 13 14 15 16 17 18 19 20 21 22 23 24 25 26 27 28 29 30 31 32 33 34 35 36 37 38 39 40 41 42 43 44 45 46 47 48 49 50

000
ASUS45 KBOU 302307
RWRCO

WEATHER ROUNDUP FOR COLORADO
NATIONAL WEATHER SERVICE DENVER/BOULDER CO
400 PM MST FRI JAN 30 2015

NOTE: "FAIR" INDICATES FEW OR NO CLOUDS BELOW 12000 FEET WITH NO
SIGNIFICANT WEATHER AND/OR OBSTRUCTIONS TO VISIBILITY.

COZ001>005-013-030-031-310000-
...NORTHWEST COLORADO...

CITY           SKY/WX    TMP DP  RH WIND       PRES   REMARKS
CRAIG          CLOUDY    36  32  85 SW5       30.04F
HAYDEN         CLOUDY    36  28  75 CALM      30.03S
MEEKER         LGT RAIN  37  32  82 CALM      30.03S
MOUNT WERNER   NOT AVBL
STEAMBOAT SPGS CLOUDY    36  29  76 CALM      30.03S
WALDEN         CLOUDY    34  27  75 CALM      30.07F
$$

COZ006>008-011-310000-
...WEST CENTRAL VALLEYS...

CITY           SKY/WX    TMP DP  RH WIND       PRES   REMARKS
GRAND JUNCTION LGT RAIN  44  39  82 S5        30.01F
MONTROSE       CLOUDY    42  36  79 NW7       30.02F
EAGLE          CLOUDY    39  34  81 W6        30.06F
RIFLE          LGT RAIN  43  33  68 CALM      30.01F
DELTA          DRIZZLE   44  40  88 W3        30.02F
NUCLA          LGT RAIN  37  36  93 NW3       30.05F
$$

COZ017>023-064>068-310000-
...SOUTHWEST COLORADO...

CITY           SKY/WX    TMP DP  RH WIND       PRES   REMARKS
DURANGO        LGT SNOW  32  32 100 NE8       30.05F VSB 1   WCI  25
CORTEZ         LGT RAIN  38  36  92 W5        30.01F
PAGOSA SPRINGS LGT SNOW  34  34  99 CALM      30.07F
TELLURIDE      CLOUDY    36  31  84 CALM      30.03F
WOLF CREEK PAS SNOW      23  23 100 SW12G17   30.14F VSB 1/4 WCI  12
$$

COZ009-010-012-014-032>034-037-058>063-310000-
...CENTRAL COLORADO...

CITY           SKY/WX    TMP DP  RH WIND       PRES   REMARKS
ASPEN          CLOUDY    36  26  67 NW5       30.02F
BUENA VISTA    LGT SNOW  32  30  94 CALM      30.10F VSB 3/4
COPPER MTN     SNOW      30  25  80 E3        30.12S VSB 1/2
BERTHOUD PASS  LGT SNOW  18  12  79 MISG      30.16S VSB 3/4
COTTONWOOD PAS LGT SNOW  32  28  86 CALM      30.11F VSB 1
GUNNISON       CLOUDY    32  28  86 N6        30.08F WCI  26
KREMMLING      CLOUDY    34  23  64 CALM      30.08F
LEADVILLE      LGT SNOW  26  25  96 S9        30.08F FOG     WCI  17
MONARCH PASS   SNOW      23  21  93 MISG      30.23F VSB 1/2
SALIDA         CLOUDY    34  33  95 CALM      30.17F VSB 3/4
SUNLIGHT       LGT SNOW  30  28  93 E3          N/A  VSB 1
WILKERSON PASS LGT SNOW  25  21  86 E5        30.16F WCI  19
$$

COZ069>075-310000-
...SAN LUIS VALLEY/SANGRE DE CRISTO MOUNTAINS...

CITY           SKY/WX    TMP DP  RH WIND       PRES   REMARKS
ALAMOSA        LGT SNOW  31  29  92 E3        30.10F VSB 1
LA VETA PASS   SNOW      27  23  86 SW5       30.10F VSB 1/2 WCI  21
SAGUACHE       MIX PCPN  30  28  93 CALM      30.12F
$$

COZ035-036-038>040-310000-
...NORTHERN COLORADO FRONT RANGE...

CITY           SKY/WX    TMP DP  RH WIND       PRES   REMARKS
DENVER INTL AP CLOUDY    46  27  47 N8        30.07S
DMNS CITY PARK   N/A     47  24  39 NE3       30.07S
AURORA         CLOUDY    45  25  45 N5        30.08S
FRONT RANGE AP CLOUDY    46  30  53 N6        30.08S
ERIE MUNI ARPT CLOUDY    48  24  38 CALM      30.07S
BOULDER MUN AP CLOUDY    46  27  46 CALM      30.07S
CENTENNIAL     CLOUDY    45  25  45 N7        30.08S
BROOMFIELD     CLOUDY    46  25  42 N3        30.08S
FORT COLLINS   CLOUDY    46  30  53 CALM      30.09S
LONGMONT       CLOUDY    51  25  36 CALM      30.09S
$$

COZ041-046-047-076>085-087-088-310000-
...PIKES PEAK/PALMER DIVIDE AND SOUTHERN FOOTHILLS...

CITY           SKY/WX    TMP DP  RH WIND       PRES   REMARKS
COLO. SPRINGS  CLOUDY    40  25  55 CALM      30.08F
A. F. ACADEMY  CLOUDY    40  25  54 S5        30.07F
ELLICOTT       CLOUDY   N/A N/A N/A S3        30.07F
FALCON         CLOUDY    38  24  57 CALM      30.09F
FORT CARSON    CLOUDY    40  25  55 NE2       30.06F
LIMON          CLOUDY    40  30  67 S10       30.08F
MONUMENT HILL  CLOUDY    37  25  60 N7        30.08S
TRINIDAD       LGT RAIN  35  33  92 SW25      30.06F WCI  23
$$

COZ042>045-048>051-090-091-310000-
...NORTHEAST COLORADO...

CITY           SKY/WX    TMP DP  RH WIND       PRES   REMARKS
GREELEY ARPT   CLOUDY    45  28  53 CALM      30.07S
AKRON          CLOUDY    44  29  55 NW6       30.06F
BURLINGTON     CLOUDY    37  31  78 S20       30.14S
WRAY           CLOUDY    46  32  57 S14       30.11F
STERLING       CLOUDY    43  30  61 CALM      30.07F
HOLYOKE        NOT AVBL
FORT MORGAN    CLOUDY    43  29  56 CALM      30.08S
$$

COZ086-089-092>099-310000-
...SOUTHEAST COLORADO...

CITY           SKY/WX    TMP DP  RH WIND       PRES   REMARKS
PUEBLO         LGT RAIN  42  31  64 CALM      30.06F
LA JUNTA       CLOUDY    41  37  86 SE8       30.09F
LAMAR          MIX PCPN  36  34  92 S10       30.13F
SPRINGFIELD      N/A     32  32 100 S15       30.15F WCI  22
$$


USA.gov is the U.S. government's official web portal to all federal, state and local government web resources and services.